Zurück zum Katalog

VIREON-1

AktivWissenschaftSSO
NORAD 68434·PAYLOAD·🇬🇧 United Kingdom

Gestartet Mar 30, 2026 von Vandenberg Space Force Base

Loading…

Nächste Überflüge (nächste 24 Stunden)

TLE

AktuellSource: Space-Track

Epoche: Sep 14, 2026, 04:39 UTC

1 68434U 26067U   26257.19391941  .00002029  00000-0  99985-4 0  9992
2 68434  97.4688 214.6263 0002859  58.8046 301.3469 15.19082385 25452

Verfolge VIREON-1 in Echtzeit mit AllMySat

Download on the App Store